Weather History for Athens, GA

Change the Weather History Date:

Thursday, February 21, 2013

  Actual Average Record
Temperature  
Mean Temperature 49 °F 49 °F  
Max Temperature 64 °F 60 °F 76 °F (1981)
Min Temperature 33 °F 38 °F 13 °F (1885)
Degree Days  
Heating Degree Days 16 16  
Month to date heating degree days 412 389  
Since 1 July heating degree days 1881 2146  
Moisture  
Dew Point 20 °F    
Average Humidity 34    
Maximum Humidity 51    
Minimum Humidity 17    
Precipitation  
Precipitation T in 0.16 in 2.04 in (1929)
Month to date precipitation 2.72 3.36  
Year to date precipitation 7.69 7.41  
Snow  
Snow 0.00 in 0.10 in 0.00 in (2002)
Month to date snowfall 0.0 0.5  
Since 1 July snowfall 0.0 2.0  
Snow Depth -    
Sea Level Pressure  
Sea Level Pressure 30.12 in    
Wind  
Wind Speed 6 mph (ENE)    
Max Wind Speed 13 mph    
Max Gust Speed 17 mph    
Visibility 10 miles    
Events      
T = Trace of Precipitation, MM = Missing Value Source: NWS Daily Summary

Daily Weather History Graph

Daily Weather History Graph

Search for Another Location

Airport:

Trip Planner

Search our weather history database for the weather conditions in past years. The results will help you decide how hot, cold, wet, or windy it might be!

Date:

Astronomy

Feb. 21, 2013 Rise Set
Actual Time 7:11 AM EST 6:23 PM EST
Civil Twilight 6:45 AM EST 6:48 PM EST
Nautical Twilight 6:16 AM EST 7:17 PM EST
Astronomical Twilight 5:47 AM EST 7:46 PM EST
Moon 2:43 PM EST (2/21) 4:07 AM EST (2/21)
Length of Visible Light 12h 02m
Length of Day
11h 11m
Waxing Gibbous, 83% of the Moon is Illuminated
Feb 21
Waxing Gibbous
Feb 25
Full
Mar 4
Last Quarter
Mar 11
New
Mar 19
First Quarter

Hourly Weather History & Observations

Time (EST) Temp. Windchill Dew Point Humidity Pressure Visibility Wind Dir Wind Speed Gust Speed Precip Events Conditions
12:51 AM 39.9 °F 37.8 °F 16.0 °F 38% 30.12 in 10.0 mi West 3.5 mph - N/A   Overcast
1:51 AM 37.0 °F 34.5 °F 17.1 °F 44% 30.12 in 10.0 mi WNW 3.5 mph - N/A   Clear
2:51 AM 36.0 °F 32.1 °F 17.1 °F 46% 30.12 in 10.0 mi NNW 4.6 mph - N/A   Partly Cloudy
3:51 AM 36.0 °F 30.3 °F 16.0 °F 44% 30.12 in 10.0 mi NNW 6.9 mph - N/A   Partly Cloudy
4:51 AM 34.0 °F 31.0 °F 18.0 °F 52% 30.13 in 10.0 mi North 3.5 mph - N/A   Partly Cloudy
5:51 AM 34.0 °F 28.8 °F 17.1 °F 50% 30.14 in 10.0 mi NNE 5.8 mph - N/A   Clear
6:51 AM 33.8 °F 28.6 °F 15.8 °F 48% 30.15 in 10.0 mi NE 5.8 mph - N/A   Clear
7:51 AM 36.0 °F 30.3 °F 16.0 °F 44% 30.18 in 10.0 mi ENE 6.9 mph - N/A   Clear
8:51 AM 41.0 °F 34.7 °F 15.1 °F 35% 30.20 in 10.0 mi East 10.4 mph - N/A   Clear
9:51 AM 45.0 °F 40.6 °F 16.0 °F 31% 30.21 in 10.0 mi ENE 8.1 mph - N/A   Clear
10:51 AM 48.0 °F - 17.1 °F 29% 30.20 in 10.0 mi Variable 3.5 mph - N/A   Clear
11:51 AM 52.0 °F - 19.0 °F 27% 30.18 in 10.0 mi ENE 4.6 mph - N/A   Clear
12:51 PM 55.0 °F - 19.0 °F 24% 30.14 in 10.0 mi Calm Calm - N/A   Clear
1:51 PM 59.0 °F - 19.4 °F 22% 30.09 in 10.0 mi Calm Calm - N/A   Clear
2:51 PM 63.0 °F - 18.0 °F 18% 30.08 in 10.0 mi Calm Calm - N/A   Clear
3:51 PM 63.0 °F - 19.9 °F 19% 30.06 in 10.0 mi East 3.5 mph - N/A   Clear
4:51 PM 62.1 °F - 23.0 °F 22% 30.04 in 10.0 mi ESE 6.9 mph - N/A   Clear
5:51 PM 57.9 °F - 26.1 °F 30% 30.03 in 10.0 mi East 9.2 mph - N/A   Clear
6:51 PM 54.0 °F - 27.0 °F 35% 30.03 in 10.0 mi East 9.2 mph - N/A   Clear
7:51 PM 55.0 °F - 26.1 °F 33% 30.06 in 10.0 mi East 5.8 mph - N/A   Scattered Clouds
8:51 PM 54.0 °F - 27.0 °F 35% 30.09 in 10.0 mi East 5.8 mph - N/A   Mostly Cloudy
9:51 PM 53.6 °F - 24.8 °F 33% 30.09 in 10.0 mi East 8.1 mph - N/A   Overcast
10:51 PM 53.1 °F - 27.0 °F 37% 30.12 in 10.0 mi East 10.4 mph - 0.00 in   Overcast
11:51 PM 53.1 °F - 28.0 °F 38% 30.09 in 10.0 mi East 12.7 mph - N/A   Overcast